Hourly Data Report for October 27, 2018

TORONTO CITY
ONTARIO
Current Station Operator: ECCC - MSC

43°40'00.000" N
79°24'00.000" W
112.50 m
6158355
71508
XTO

Download Data

Hourly Data (October 2018)
Hourly Data Report for October 27, 2018
TIME
LST
Temp Definition
°C
Dew Point Definition
°C
Rel Hum Definition
%
Precip. Amount Definition
mm

Wind Dir Definition
10's deg

Wind Spd Definition
km/h
Visibility Definition
km
Stn Press Definition
kPa
Hmdx Definition


Wind Chill Definition


Weather Definition


00:00 5.5 0.6 71 0.0 LegendMM LegendMM   100.01     LegendNANA
01:00 5.3 1.3 76 0.0 LegendMM LegendMM   99.97     LegendNANA
02:00 5.3 1.1 75 0.0 LegendMM LegendMM   99.95     LegendNANA
03:00 4.9 -0.7 67 0.0 LegendMM LegendMM   99.91     LegendNANA
04:00 4.7 -1.9 63 0.0 LegendMM LegendMM   99.84     LegendNANA
05:00 4.0 -2.1 64 0.0 LegendMM LegendMM   99.84     LegendNANA
06:00 4.1 -2.0 64 0.0 LegendMM LegendMM   99.84     LegendNANA
07:00 3.2 -1.1 73 0.5 LegendMM LegendMM   99.84     LegendNANA
08:00 3.1 -0.5 78 1.1 LegendMM LegendMM   99.84     LegendNANA
09:00 4.0 -0.1 75 0.0 LegendMM LegendMM   99.79     LegendNANA
10:00 5.5 -0.7 64 0.0 LegendMM LegendMM   99.81     LegendNANA
11:00 5.9 -1.3 60 0.0 LegendMM LegendMM   99.76     LegendNANA
12:00 6.5 -2.1 54 0.0 LegendMM LegendMM   99.69     LegendNANA
13:00 6.4 -2.2 54 0.0 LegendMM LegendMM   99.66     LegendNANA
14:00 6.2 -2.1 55 0.0 LegendMM LegendMM   99.62     LegendNANA
15:00 5.2 -1.7 61 0.0 LegendMM LegendMM   99.66     LegendNANA
16:00 4.5 -1.2 67 0.2 LegendMM LegendMM   99.65     LegendNANA
17:00 3.7 -0.1 76 0.3 LegendMM LegendMM   99.68     LegendNANA
18:00 2.9 0.3 83 0.6 LegendMM LegendMM   99.70     LegendNANA
19:00 1.9 0.1 88 0.7 LegendMM LegendMM   99.70     LegendNANA
20:00 1.6 0.2 91 1.2 LegendMM LegendMM   99.67     LegendNANA
21:00 1.4 0.1 91 1.2 LegendMM LegendMM   99.64     LegendNANA
22:00 1.8 0.4 91 0.6 LegendMM LegendMM   99.63     LegendNANA
23:00 1.9 0.5 91 0.5 LegendMM LegendMM   99.58     LegendNANA

Notes on Data Quality.

Legend

  • E = Estimated
  • M = Missing
  • NA = Not Available*
  • [empty] = Indicates an unobserved value
Date modified: